Palm Springs, CA

12:49 PM PST on February 13, 2016 (GMT -0800)
Palm Springs International

Weather History for KPSP - January, 2013

Change the Weather History Date:

Wednesday, January 16, 2013

  Actual Average Record
Temperature  
Mean Temperature 53 °F 58 °F  
Max Temperature 68 °F 69 °F 88 °F (1976)
Min Temperature 37 °F 46 °F 28 °F (1951)
Degree Days  
Heating Degree Days 12 8  
Month to date heating degree days 207 134  
Since 1 July heating degree days 508 520  
Cooling Degree Days 0 0  
Month to date cooling degree days 0 0  
Year to date cooling degree days 0 0  
Growing Degree Days 2 (Base 50)    
Moisture  
Dew Point 20 °F    
Average Humidity 33    
Maximum Humidity 48    
Minimum Humidity 17    
Precipitation  
Precipitation 0.00 in 0.03 in 1.05 in (1993)
Month to date precipitation T 0.68  
Year to date precipitation T 0.68  
Since 1 July precipitation 1.22  
Snow  
Snow 0.00 in - - ()
Month to date snowfall 0.0  
Year to date snowfall 0.0  
Snow Depth 0.00 in    
Sea Level Pressure  
Sea Level Pressure 30.34 in    
Wind  
Wind Speed 5 mph (SSE)    
Max Wind Speed 13 mph    
Max Gust Speed 16 mph    
Visibility 10 miles    
Events      
T = Trace of Precipitation, MM = Missing Value Source: NWS Daily Summary

Daily Weather History Graph

Daily Weather History Graph

Search for Another Location

Airport or City:

Trip Planner

Search our weather history database for the weather conditions in past years. The results will help you decide how hot, cold, wet, or windy it might be!

Date:

Astronomy

Jan. 16, 2013 Rise Set
Actual Time 6:50 AM PST 5:01 PM PST
Civil Twilight 6:23 AM PST 5:28 PM PST
Nautical Twilight 5:52 AM PST 5:59 PM PST
Astronomical Twilight 5:23 AM PST 6:29 PM PST
Moon 9:47 AM PST (1/16) 10:38 PM PST (1/16)
Length of Visible Light 11h 05m
Length of Day
10h 11m
Waxing Crescent, 29% of the Moon is Illuminated
Jan 16
Waxing Crescent
Jan 18
First Quarter
Jan 26
Full
Feb 3
Last Quarter
Feb 9
New

Hourly Weather History & Observations

Time (PST) Temp. Windchill Dew Point Humidity Pressure Visibility Wind Dir Wind Speed Gust Speed Precip Events Conditions
12:53 AM 42.1 °F - 15.1 °F 34% 30.40 in 10.0 mi Calm Calm - N/A   Clear
1:53 AM 41.0 °F - 14.0 °F 33% 30.40 in 10.0 mi Calm Calm - N/A   Clear
2:53 AM 37.0 °F 31.6 °F 19.0 °F 48% 30.41 in 10.0 mi SW 6.9 mph - N/A   Clear
3:53 AM 42.1 °F - 18.0 °F 38% 30.39 in 10.0 mi Calm Calm - N/A   Clear
4:53 AM 39.0 °F - 18.0 °F 43% 30.38 in 10.0 mi Calm Calm - N/A   Clear
5:53 AM 39.0 °F 36.8 °F 17.1 °F 41% 30.40 in 10.0 mi South 3.5 mph - N/A   Clear
6:53 AM 41.0 °F 38.0 °F 18.0 °F 40% 30.40 in 10.0 mi Variable 4.6 mph - N/A   Clear
7:53 AM 43.0 °F - 18.0 °F 37% 30.42 in 10.0 mi Calm Calm - N/A   Clear
8:53 AM 50.0 °F - 17.1 °F 27% 30.42 in 10.0 mi SE 5.8 mph - N/A   Clear
9:53 AM 52.0 °F - 14.0 °F 22% 30.42 in 10.0 mi ESE 9.2 mph - N/A   Clear
10:53 AM 55.0 °F - 18.0 °F 23% 30.39 in 10.0 mi SE 9.2 mph - N/A   Clear
12:53 PM 62.1 °F - 23.0 °F 22% 30.30 in 10.0 mi SSE 8.1 mph - N/A   Clear
1:53 PM 66.9 °F - 21.9 °F 18% 30.26 in 10.0 mi SE 6.9 mph - N/A   Clear
2:53 PM 68.0 °F - 21.9 °F 17% 30.25 in 10.0 mi SE 9.2 mph - N/A   Clear
3:53 PM 66.9 °F - 21.0 °F 17% 30.25 in 10.0 mi ESE 9.2 mph - N/A   Clear
4:53 PM 62.1 °F - 24.1 °F 23% 30.27 in 10.0 mi East 6.9 mph - N/A   Clear
5:53 PM 57.9 °F - 24.1 °F 27% 30.28 in 10.0 mi Calm Calm - N/A   Clear
6:53 PM 55.0 °F - 26.1 °F 33% 30.30 in 10.0 mi Calm Calm - N/A   Clear
7:53 PM 51.1 °F - 26.1 °F 38% 30.30 in 10.0 mi Calm Calm - N/A   Clear
8:53 PM 51.1 °F - 25.0 °F 36% 30.29 in 10.0 mi WSW 3.5 mph - N/A   Clear
9:53 PM 48.9 °F - 24.1 °F 38% 30.28 in 10.0 mi NNW 6.9 mph - N/A   Clear
10:53 PM 52.0 °F - 21.0 °F 30% 30.27 in 10.0 mi WSW 4.6 mph - N/A   Clear